EW8829 Weather Reports


time (UTC)temp
F
wind
direction
speed
knots
gust
knots
rain 1hr
in
rain 24hr
in
rain mn
in
humidity
%
barometer
mb
20260508220530 55 38 2.6 3.5 0.00 0.00 0.00 49 1008.8
20260508220026 55 81 2.6 2.6 0.00 0.00 0.00 47 1008.6
20260508215523 55 36 1.7 3.5 0.00 0.00 0.00 49 1008.7
20260508215020 55 31 1.7 1.7 0.00 0.00 0.00 54 1008.6
20260508214517 55 57 1.7 2.6 0.00 0.00 0.00 49 1008.7
20260508214013 54 17 3.5 3.5 0.00 0.00 0.00 48 1008.6
20260508213511 55 70 1.7 2.6 0.00 0.00 0.00 47 1008.6
20260508213006 55 39 1.7 4.3 0.00 0.00 0.00 47 1008.6
20260508212503 55 42 2.6 7.0 0.00 0.00 0.00 50 1008.6
20260508211959 55 12 2.6 2.6 0.00 0.00 0.00 48 1008.8
20260508211455 57 335 0.0 5.2 0.00 0.00 0.00 48 1008.8
20260508210952 56 34 3.5 7.0 0.00 0.00 0.00 47 1008.9
20260508210448 57 7 1.7 4.3 0.00 0.00 0.00 44 1008.7
20260508205945 58 155 1.7 2.6 0.00 0.00 0.00 42 1008.7
20260508205442 57 58 1.7 3.5 0.00 0.00 0.00 44 1008.8
20260508204938 56 31 1.7 3.5 0.00 0.00 0.00 46 1008.9
20260508204436 55 14 3.5 3.5 0.00 0.00 0.00 48 1009.0
20260508203931 56 101 2.6 5.2 0.00 0.00 0.00 47 1009.0
20260508203427 58 330 2.6 5.2 0.00 0.00 0.00 45 1008.9
20260508202923 56 47 1.7 2.6 0.00 0.00 0.00 46 1009.1
20260508202421 55 85 3.5 4.3 0.00 0.00 0.00 48 1009.0
20260508201918 55 67 4.3 4.3 0.00 0.00 0.00 47 1009.1
20260508201414 56 10 4.3 7.0 0.00 0.00 0.00 46 1009.2
20260508200911 57 48 3.5 5.2 0.00 0.00 0.00 45 1009.4
20260508200408 56 42 1.7 6.1 0.00 0.00 0.00 46 1009.2
20260508195903 57 300 4.3 4.3 0.00 0.00 0.00 47 1009.4
20260508195400 55 339 2.6 4.3 0.00 0.00 0.00 50 1009.4
20260508194856 55 258 4.3 5.2 0.00 0.00 0.00 45 1009.5
20260508194354 57 276 0.9 5.2 0.00 0.00 0.00 44 1009.6
20260508193851 56 55 1.7 7.8 0.00 0.00 0.00 46 1009.6
20260508193348 57 356 2.6 5.2 0.00 0.00 0.00 45 1009.7
20260508192844 57 21 1.7 5.2 0.00 0.00 0.00 49 1009.5
20260508192341 56 72 2.6 2.6 0.00 0.00 0.00 54 1009.8
20260508191838 56 58 3.5 4.3 0.00 0.00 0.00 50 1009.8
20260508191335 53 266 7.8 10.4 0.00 0.00 0.00 48 1010.0
20260508190832 55 88 3.5 5.2 0.00 0.00 0.00 47 1009.7
20260508190329 52 321 2.6 6.1 0.00 0.00 0.00 50 1009.9
20260508185825 53 63 5.2 5.2 0.00 0.00 0.00 54 1010.0
20260508185323 51 15 1.7 4.3 0.00 0.00 0.00 53 1010.1
20260508184820 53 285 3.5 7.8 0.00 0.00 0.00 54 1010.1
20260508184317 52 126 1.7 4.3 0.00 0.00 0.00 55 1010.4
20260508183814 53 29 4.3 6.1 0.00 0.00 0.00 54 1010.4
20260508183310 54 6 2.6 5.2 0.00 0.00 0.00 56 1010.6
20260508182806 53 357 1.7 4.3 0.00 0.00 0.00 55 1010.4
20260508182306 50 45 3.5 6.1 0.00 0.00 0.00 57 1010.6
20260508181759 50 44 2.6 3.5 0.00 0.00 0.00 60 1010.5
20260508181256 52 291 9.6 11.3 0.00 0.00 0.00 58 1010.5
20260508180753 52 29 3.5 5.2 0.00 0.00 0.00 62 1010.5
20260508180250 50 27 0.0 5.2 0.00 0.00 0.00 61 1010.8
20260508175746 50 39 3.5 5.2 0.00 0.00 0.00 62 1010.5
20260508175243 50 2 1.7 3.5 0.00 0.00 0.00 64 1010.6
20260508174741 50 17 3.5 5.2 0.00 0.00 0.00 62 1010.6
20260508174238 51 40 3.5 4.3 0.00 0.00 0.00 63 1010.6
20260508173734 50 5 4.3 9.6 0.00 0.00 0.00 66 1010.6
20260508173230 49 146 2.6 10.4 0.00 0.00 0.00 65 1010.8
20260508172727 50 290 2.6 16.5 0.00 0.00 0.00 63 1010.9
20260508172224 49 285 4.3 8.7 0.00 0.00 0.00 66 1010.8
20260508171720 49 55 1.7 2.6 0.00 0.00 0.00 72 1010.7
20260508171217 49 142 2.6 7.0 0.00 0.00 0.00 70 1011.1
20260508170714 50 344 1.7 5.2 0.00 0.00 0.00 67 1010.9
20260508170212 49 290 2.6 3.5 0.00 0.00 0.00 73 1010.8
20260508165708 48 115 3.5 4.3 0.00 0.00 0.00 75 1011.3
20260508165206 48 80 5.2 7.8 0.00 0.00 0.00 77 1011.3
20260508164702 47 13 1.7 3.5 0.00 0.00 0.00 78 1011.2
20260508164159 46 18 2.6 3.5 0.00 0.00 0.00 82 1010.9
20260508163656 46 73 4.3 5.2 0.00 0.00 0.00 80 1011.1
20260508163154 44 104 3.5 7.0 0.00 0.00 0.00 82 1011.3
20260508162649 44 68 3.5 8.7 0.00 0.00 0.00 85 1011.5
20260508162146 45 77 5.2 6.1 0.00 0.00 0.00 85 1011.4
20260508161643 44 119 6.1 7.8 0.00 0.00 0.00 84 1011.5
20260508161141 44 20 2.6 5.2 0.00 0.00 0.00 82 1011.3
20260508160639 43 25 3.5 3.5 0.00 0.00 0.00 84 1011.7
20260508160136 42 20 3.5 4.3 0.00 0.00 0.00 85 1011.4
20260508155628 43 44 3.5 4.3 0.00 0.00 0.00 87 1011.6
20260508155125 42 65 3.5 5.2 0.00 0.00 0.00 85 1011.6
20260508154621 43 33 3.5 3.5 0.00 0.00 0.00 87 1011.5
20260508154118 43 55 2.6 3.5 0.00 0.00 0.00 89 1010.9
20260508153615 43 73 3.5 4.3 0.00 0.00 0.00 89 1010.9
20260508153111 43 70 3.5 4.3 0.00 0.00 0.00 88 1010.9
20260508152609 44 61 2.6 3.5 0.00 0.00 0.00 87 1010.8
20260508152103 44 78 3.5 3.5 0.00 0.00 0.00 87 1010.6
20260508151600 44 53 2.6 4.3 0.00 0.00 0.00 88 1010.7
20260508151057 44 69 2.6 3.5 0.00 0.00 0.00 82 1010.7
20260508150554 45 51 1.7 2.6 0.00 0.00 0.00 81 1010.9
20260508150050 44 45 1.7 2.6 0.00 0.00 0.00 80 1010.6
20260508145547 44 76 2.6 3.5 0.00 0.00 0.00 80 1010.5
20260508145043 44 96 1.7 2.6 0.00 0.00 0.00 85 1010.7
20260508144541 43 63 2.6 2.6 0.00 0.00 0.00 85 1010.8
20260508144038 43 36 1.7 1.7 0.00 0.00 0.00 86 1010.9
20260508143536 43 13 1.7 3.5 0.00 0.00 0.00 85 1010.7
20260508143032 43 39 1.7 1.7 0.00 0.00 0.00 85 1010.9
20260508142529 43 45 2.6 2.6 0.00 0.00 0.00 87 1010.8
20260508142026 42 46 1.7 1.7 0.00 0.00 0.00 88 1010.7
20260508141522 42 81 0.9 1.7 0.00 0.00 0.00 89 1010.9
20260508141021 42 78 2.6 2.6 0.00 0.00 0.00 88 1010.9
20260508140518 42 46 1.7 3.5 0.00 0.00 0.00 87 1010.9
20260508140014 42 64 2.6 3.5 0.00 0.00 0.00 86 1010.9
20260508135509 42 77 0.9 2.6 0.00 0.00 0.00 87 1010.9
20260508135006 42 30 1.7 2.6 0.00 0.00 0.00 86 1010.8
20260508134502 42 51 1.7 3.5 0.00 0.00 0.00 86 1011.2
20260508133959 42 55 2.6 3.5 0.00 0.00 0.00 84 1010.9
20260508133456 42 259 1.7 3.5 0.02 0.00 0.00 85 1010.6
20260508132953 42 24 1.7 2.6 0.02 0.00 0.00 91 1010.5
20260508132451 42 47 1.7 2.6 0.00 0.00 0.00 88 1010.5
20260508131948 43 87 1.7 1.7 0.00 0.00 0.00 89 1010.5
20260508131443 42 64 1.7 2.6 0.00 0.00 0.00 89 1010.1
20260508130940 42 55 1.7 2.6 0.00 0.00 0.00 90 1010.2
20260508130437 42 67 1.7 1.7 0.00 0.00 0.00 87 1010.4
20260508125933 42 80 0.0 1.7 0.00 0.00 0.00 88 1010.3
20260508125430 42 45 1.7 1.7 0.00 0.00 0.00 88 1010.2
20260508124928 42 80 1.7 1.7 0.00 0.00 0.00 89 1010.1
20260508124425 42 107 0.9 2.6 0.00 0.00 0.00 91 1009.9
20260508123922 41 88 1.7 1.7 0.00 0.00 0.00 92 1010.1
20260508123421 41 49 0.9 2.6 0.00 0.00 0.00 92 1010.0
20260508122917 40 99 1.7 2.6 0.00 0.00 0.00 92 1010.3
20260508122414 40 79 0.9 1.7 0.00 0.00 0.00 92 1010.0
20260508121911 40 72 2.6 2.6 0.00 0.00 0.00 93 1010.2
20260508121409 40 60 2.6 3.5 0.00 0.00 0.00 94 1010.3
20260508120906 39 333 0.0 1.7 0.00 0.00 0.00 94 1010.2
20260508120404 39 246 0.9 1.7 0.00 0.00 0.00 95 1010.2
20260508115901 38 22 0.0 1.7 0.00 0.00 0.00 95 1010.2
20260508115359 38 45 0.9 1.7 0.00 0.00 0.00 97 1010.1
20260508114855 38 119 0.0 1.7 0.00 0.00 0.00 99 1010.2
20260508114352 38 67 0.9 1.7 0.00 0.00 0.00 99 1010.1
20260508113849 37 88 1.7 2.6 0.00 0.00 0.00 99 1010.3
20260508113347 37 100 1.7 1.7 0.00 0.00 0.00 99 1010.5
20260508112843 37 38 1.7 2.6 0.00 0.00 0.00 99 1010.6
20260508112341 37 81 1.7 2.6 0.00 0.00 0.00 99 1010.3
20260508111837 36 79 0.9 1.7 0.00 0.00 0.00 99 1010.5
20260508111334 36 86 1.7 2.6 0.00 0.00 0.00 99 1010.5
20260508110831 36 56 1.7 1.7 0.00 0.00 0.00 99 1010.5
20260508110329 36 68 1.7 1.7 0.00 0.00 0.00 99 1010.6
20260508105829 36 41 1.7 2.6 0.00 0.00 0.00 99 1010.6
20260508105325 35 88 1.7 2.6 0.00 0.00 0.00 99 1010.5
20260508104822 35 71 1.7 1.7 0.00 0.00 0.00 99 1010.4
20260508104319 35 22 1.7 2.6 0.00 0.00 0.00 99 1010.1
20260508103816 35 79 1.7 2.6 0.00 0.00 0.00 99 1010.3
20260508103313 35 35 1.7 2.6 0.00 0.00 0.00 99 1010.8
20260508102811 35 88 1.7 2.6 0.00 0.00 0.00 99 1010.6
20260508102309 35 92 1.7 1.7 0.00 0.00 0.00 99 1010.7
20260508101806 34 43 0.9 1.7 0.00 0.00 0.00 99 1010.5
20260508101303 34 79 1.7 1.7 0.00 0.00 0.00 99 1010.3
20260508100800 34 72 1.7 1.7 0.00 0.00 0.00 99 1010.4
20260508100259 34 28 2.6 3.5 0.00 0.00 0.00 99 1010.4
20260508095754 34 84 0.9 1.7 0.00 0.00 0.00 99 1010.2
20260508095252 34 84 1.7 1.7 0.00 0.00 0.00 99 1010.3
20260508094749 34 53 0.0 0.9 0.00 0.00 0.00 99 1010.4
20260508094246 33 42 0.0 1.7 0.00 0.00 0.00 99 1010.1
20260508093743 34 83 0.9 1.7 0.00 0.00 0.00 99 1010.5
20260508093240 34 109 1.7 1.7 0.00 0.00 0.00 99 1010.4
20260508092737 34 17 0.0 1.7 0.00 0.00 0.00 99 1010.2
20260508092235 34 45 0.9 1.7 0.00 0.00 0.00 99 1010.0
20260508091733 34 47 2.6 2.6 0.00 0.00 0.00 99 1010.0
20260508091230 35 55 1.7 2.6 0.00 0.00 0.00 99 1010.0
20260508090728 35 89 1.7 1.7 0.00 0.00 0.00 99 1010.0
20260508090225 35 38 0.0 0.9 0.00 0.00 0.00 99 1010.2
20260508085721 35 37 0.9 0.9 0.00 0.00 0.00 99 1009.8
20260508085218 35 92 1.7 1.7 0.00 0.00 0.00 99 1009.7
20260508084714 35 66 0.0 0.9 0.00 0.00 0.00 99 1009.6
20260508084212 35 343 0.0 1.7 0.00 0.00 0.00 99 1009.7
20260508083709 35 45 1.7 1.7 0.00 0.00 0.00 99 1009.4
20260508083207 36 68 1.7 1.7 0.00 0.00 0.00 99 1009.6
20260508082701 36 68 1.7 1.7 0.00 0.00 0.00 99 1009.7
20260508082159 37 36 0.9 1.7 0.00 0.00 0.00 99 1010.1
20260508081656 36 355 0.0 1.7 0.00 0.00 0.00 99 1009.8
20260508081153 36 47 1.7 1.7 0.00 0.00 0.00 98 1009.5
20260508080650 37 86 1.7 1.7 0.00 0.00 0.00 98 1009.6
20260508080148 37 98 1.7 2.6 0.00 0.00 0.00 98 1009.7
20260508075644 37 1 0.9 1.7 0.00 0.00 0.00 98 1009.5
20260508075141 38 337 0.9 1.7 0.00 0.00 0.00 98 1009.3
20260508074639 37 32 0.9 1.7 0.00 0.00 0.00 98 1009.1
20260508074136 38 51 1.7 2.6 0.00 0.00 0.00 98 1009.3
20260508073633 38 41 0.9 1.7 0.00 0.00 0.00 98 1009.4
20260508073131 38 76 1.7 1.7 0.00 0.00 0.00 97 1009.4
20260508072626 38 46 1.7 1.7 0.00 0.00 0.00 97 1009.5
20260508072124 39 39 0.0 3.5 0.00 0.00 0.00 97 1009.6
20260508071621 39 73 2.6 2.6 0.00 0.00 0.00 97 1009.4
20260508071119 39 38 2.6 2.6 0.00 0.00 0.00 97 1009.3
20260508070616 39 48 1.7 2.6 0.00 0.00 0.00 97 1009.5
20260508070115 39 68 2.6 2.6 0.00 0.00 0.00 97 1009.4
20260508065612 39 46 1.7 2.6 0.00 0.00 0.00 97 1009.3
20260508065110 39 86 1.7 1.7 0.00 0.00 0.00 97 1009.6
20260508064607 39 88 0.9 1.7 0.00 0.00 0.00 97 1009.5
20260508064105 39 84 1.7 1.7 0.00 0.00 0.00 97 1009.3
20260508063602 39 93 1.7 2.6 0.00 0.00 0.00 97 1009.4
20260508063100 39 109 1.7 1.7 0.00 0.00 0.00 97 1009.1
20260508062557 39 36 0.9 1.7 0.00 0.00 0.00 96 1009.6
20260508062054 39 103 2.6 2.6 0.00 0.00 0.00 96 1009.3
20260508061551 39 34 0.0 0.9 0.00 0.00 0.00 95 1009.1
20260508061048 39 328 0.9 1.7 0.00 0.00 0.00 95 1009.3
20260508060545 39 13 0.9 1.7 0.00 0.00 0.00 94 1009.3
20260508060043 40 75 2.6 3.5 0.00 0.00 0.00 93 1009.5
20260508055538 40 83 1.7 2.6 0.00 0.00 0.00 92 1009.4
20260508055035 40 39 1.7 2.6 0.00 0.00 0.00 92 1009.2
20260508054531 39 35 1.7 2.6 0.00 0.00 0.00 91 1009.2
20260508054029 39 70 1.7 2.6 0.00 0.00 0.00 90 1009.4
20260508053525 40 34 1.7 2.6 0.00 0.00 0.00 90 1009.2
20260508053024 40 83 2.6 2.6 0.00 0.00 0.00 89 1009.2
20260508052521 39 86 0.9 1.7 0.00 0.00 0.00 89 1009.4
20260508052017 39 65 0.0 1.7 0.00 0.00 0.00 88 1009.5
20260508051514 39 344 0.0 0.9 0.00 0.00 0.00 89 1009.5
20260508051009 40 355 0.9 0.9 0.00 0.00 0.00 90 1009.4
20260508050506 40 39 0.9 0.9 0.00 0.00 0.00 90 1009.5
20260508050003 40 84 1.7 1.7 0.00 0.00 0.00 89 1009.3
20260508045459 41 345 0.0 0.0 0.00 0.00 0.00 88 1009.5
20260508044957 41 25 0.0 0.0 0.00 0.00 0.00 88 1009.4
20260508044454 41 60 0.0 0.9 0.00 0.00 0.00 89 1009.5
20260508043949 41 84 1.7 1.7 0.00 0.00 0.00 88 1009.6
20260508043447 41 69 1.7 1.7 0.00 0.00 0.00 89 1009.6
20260508042943 41 64 1.7 1.7 0.00 0.00 0.00 88 1009.7
20260508042441 41 45 1.7 1.7 0.00 0.00 0.00 88 1009.6
20260508041937 41 45 1.7 1.7 0.00 0.00 0.00 88 1009.6
20260508041434 41 52 1.7 2.6 0.00 0.00 0.00 87 1009.7
20260508040931 41 48 1.7 1.7 0.00 0.00 0.00 87 1009.7
20260508040428 41 89 0.9 1.7 0.00 0.00 0.00 87 1009.7
20260508035926 41 105 1.7 1.7 0.00 0.00 0.00 86 1009.7
20260508035422 41 75 0.9 1.7 0.00 0.00 0.00 87 1009.8
20260508034919 41 94 1.7 1.7 0.00 0.00 0.00 87 1009.5
20260508034417 41 89 1.7 2.6 0.00 0.00 0.00 87 1009.5
20260508033913 41 96 2.6 2.6 0.00 0.00 0.00 87 1009.5
20260508033412 41 256 0.0 0.9 0.00 0.00 0.00 87 1009.5
20260508032909 40 101 1.7 1.7 0.00 0.00 0.00 87 1009.5
20260508032406 40 77 1.7 1.7 0.00 0.00 0.00 87 1009.3
20260508031902 40 75 1.7 2.6 0.00 0.00 0.00 87 1009.3
20260508031400 40 54 1.7 1.7 0.00 0.00 0.00 87 1009.0
20260508030855 40 92 1.7 1.7 0.00 0.00 0.00 87 1009.1
20260508030353 40 52 1.7 1.7 0.00 0.00 0.00 87 1008.9
20260508025850 40 83 1.7 1.7 0.00 0.00 0.00 87 1008.9
20260508025347 40 72 0.9 1.7 0.00 0.00 0.00 87 1009.0
20260508024843 40 56 1.7 1.7 0.00 0.00 0.00 86 1008.9
20260508024340 40 40 1.7 1.7 0.00 0.00 0.00 86 1008.9
20260508023837 40 71 1.7 2.6 0.00 0.00 0.00 85 1008.9
20260508023334 40 47 1.7 1.7 0.00 0.00 0.00 84 1009.0
20260508022830 41 31 0.0 0.9 0.00 0.00 0.00 84 1008.8
20260508022326 41 22 0.0 1.7 0.00 0.00 0.00 85 1008.6
20260508021824 41 84 0.9 1.7 0.00 0.00 0.00 84 1008.5
20260508021319 41 53 0.9 1.7 0.00 0.00 0.00 84 1008.5
20260508020816 41 32 0.9 1.7 0.00 0.00 0.00 85 1008.7
20260508020314 41 69 1.7 1.7 0.00 0.00 0.00 83 1008.5
20260508015810 41 56 0.9 1.7 0.00 0.00 0.00 83 1008.8
20260508015308 41 12 0.9 1.7 0.00 0.00 0.00 83 1008.8
20260508014804 41 45 0.9 1.7 0.00 0.00 0.00 82 1008.6
20260508014302 42 75 1.7 1.7 0.00 0.00 0.00 82 1008.6
20260508013757 42 9 0.9 1.7 0.00 0.00 0.00 81 1008.3
20260508013254 42 15 0.0 0.9 0.00 0.00 0.00 81 1008.4
20260508012751 42 340 0.9 1.7 0.00 0.00 0.00 81 1008.4
20260508012248 42 333 0.9 0.9 0.00 0.00 0.00 83 1008.3
20260508011746 43 65 0.9 1.7 0.00 0.00 0.00 82 1008.4
20260508011243 43 45 1.7 2.6 0.00 0.00 0.00 79 1008.1
20260508010740 44 74 2.6 2.6 0.00 0.00 0.00 77 1008.3
20260508010238 44 69 1.7 1.7 0.00 0.00 0.00 76 1008.4
20260508005735 45 51 1.7 1.7 0.00 0.00 0.00 75 1008.0
20260508005232 45 61 1.7 1.7 0.00 0.00 0.00 75 1008.0
20260508004727 45 47 1.7 1.7 0.00 0.00 0.00 72 1008.1
20260508004224 46 33 1.7 1.7 0.00 0.00 0.00 70 1008.1
20260508003720 46 85 1.7 1.7 0.00 0.00 0.00 70 1007.9
20260508003218 46 46 0.9 1.7 0.00 0.00 0.00 73 1007.8
20260508002714 46 52 1.7 1.7 0.00 0.00 0.00 68 1008.0
20260508002212 47 42 0.9 1.7 0.00 0.00 0.00 69 1007.8
20260508001707 47 304 0.0 1.7 0.00 0.00 0.00 70 1007.8
20260508001203 47 40 0.9 1.7 0.00 0.00 0.00 71 1007.6
20260508000659 47 351 0.9 1.7 0.00 0.00 0.00 66 1007.7
20260508000157 48 349 0.0 1.7 0.00 0.00 0.00 66 1007.4
20260507235653 48 46 0.9 1.7 0.00 0.00 0.00 62 1007.5
20260507235151 49 33 2.6 2.6 0.00 0.00 0.00 61 1007.7
20260507234648 49 36 1.7 1.7 0.00 0.00 0.00 60 1007.6
20260507234144 49 28 0.0 1.7 0.00 0.00 0.00 61 1007.2
20260507233641 49 50 1.7 2.6 0.00 0.00 0.00 60 1007.4
20260507233139 50 45 1.7 1.7 0.00 0.00 0.00 61 1007.7
20260507232635 51 25 1.7 1.7 0.00 0.00 0.00 56 1007.4
20260507232133 51 26 1.7 3.5 0.00 0.00 0.00 52 1007.5
20260507231629 51 25 2.6 2.6 0.00 0.00 0.00 53 1007.2
20260507231126 51 25 2.6 3.5 0.00 0.00 0.00 51 1007.4
20260507230622 52 18 2.6 3.5 0.00 0.00 0.00 52 1007.2
20260507230120 53 338 1.7 3.5 0.00 0.00 0.00 50 1007.5
20260507225614 53 24 3.5 5.2 0.00 0.00 0.00 50 1007.1
20260507225111 53 82 1.7 4.3 0.00 0.00 0.00 50 1007.1
20260507224607 53 25 2.6 4.3 0.00 0.00 0.00 49 1007.4
20260507224104 53 37 4.3 4.3 0.00 0.00 0.00 49 1007.1
20260507223600 54 47 5.2 5.2 0.00 0.00 0.00 50 1007.4
20260507223057 55 67 2.6 3.5 0.00 0.00 0.00 51 1007.5
20260507222554 55 350 0.9 3.5 0.00 0.00 0.00 49 1007.0
20260507222050 54 40 3.5 4.3 0.00 0.00 0.00 55 1007.1
20260507221547 54 50 1.7 3.5 0.00 0.00 0.00 52 1007.4
20260507221044 55 78 1.7 4.3 0.00 0.00 0.00 53 1007.1